{"data":{"norad_id":58722,"epoch":"2026-05-24T12:23:18.765024Z","epoch_age_seconds":130946,"freshness":"FRESH","line1":"1 58722U 24002T   26144.51618941  .00129966  00000+0  41838-2 0  9992","line2":"2 58722  53.1597 237.7991 0002167  41.0938 319.0226 15.31263982133623","mean_motion":15.31263982,"eccentricity":0.0002167,"inclination_deg":53.1597,"raan_deg":237.7991,"arg_perigee_deg":41.0938,"mean_anomaly_deg":319.0226,"bstar":0.0041838,"rev_number":13362,"period_min":94.039957638082,"perigee_km":470.55561723096,"apogee_km":473.52448396469,"semimajor_km":6850.1770505978,"source":"CELESTRAK","updated_at":"2026-05-25T13:38:18.718291Z"}}